Back to catalog

UPPER FREE FLYER

AliveScienceSSO
NORAD 43763·PAYLOAD·🇺🇸 United States

Launched Dec 3, 2018 from Vandenberg Space Force Base

Loading…

Next Passes (next 24 hours)

TLE

FreshSource: Space-Track

Epoch: Sep 14, 2026, 13:59 UTC

1 43763U 18099F   26257.58314288  .00002541  00000-0  15123-3 0  9998
2 43763  97.4268 304.2495 0012619   4.0891 356.0440 15.12051837426051

Track UPPER FREE FLYER in real time with AllMySat

Download on the App Store